CW1839 Weather Reports


Display with metric or nautical units.
time (UTC)temp
F
wind
direction
speed
MPH
gust
MPH
rain 1hr
in
rain 24hr
in
rain mn
in
humidity
%
barometer
mb
20180624165717 68 7 0.0 0.0 0.00 0.00 0.30 81 1010.6
20180624164123 68 7 0.0 0.0 0.00 0.00 0.30 79 1010.5
20180624162607 69 7 0.0 0.0 0.00 0.00 0.28 77 1010.6
20180624161112 69 7 0.0 0.0 0.00 0.00 0.28 75 1010.6
20180624155616 69 7 0.0 0.0 0.00 0.00 0.28 75 1010.3
20180624154123 69 7 0.0 0.0 0.00 0.00 0.28 74 1010.7
20180624152606 69 3 0.0 0.0 0.00 0.00 0.28 74 1010.7
20180624150952 69 3 0.0 0.0 0.00 0.00 0.28 75 1010.6
20180624145451 69 51 0.0 0.0 0.00 0.00 0.28 75 1010.8
20180624143956 69 44 0.0 0.0 0.00 0.00 0.28 75 1010.8
20180624142454 70 83 0.0 0.0 0.00 0.00 0.28 74 1010.9
20180624140951 70 56 0.0 0.0 0.00 0.00 0.28 73 1011.0
20180624135501 71 23 0.0 0.0 0.00 0.00 0.28 73 1010.9
20180624134005 71 93 0.0 0.0 0.00 0.00 0.28 73 1010.8
20180624132605 72 56 0.0 0.0 0.00 0.00 0.28 72 1010.9
20180624130959 71 42 0.0 0.0 0.00 0.00 0.28 74 1011.2
20180624125505 70 80 0.0 0.0 0.00 0.00 0.28 76 1011.4
20180624123954 69 6 0.0 0.0 0.00 0.00 0.28 76 1011.8
20180624122215 69 356 0.0 0.0 0.00 0.00 0.28 79 1011.9
20180624120727 68 7 0.0 0.0 0.00 0.00 0.28 81 1012.0
20180624115205 68 10 0.0 0.0 0.00 0.00 0.28 83 1012.0
20180624113718 67 8 0.0 0.0 0.00 0.00 0.28 84 1012.2
20180624112110 66 55 0.0 0.0 0.00 0.00 0.28 86 1012.4
20180624110622 66 35 0.0 0.0 0.00 0.00 0.28 87 1012.4
20180624105109 66 44 0.0 0.0 0.00 0.00 0.28 88 1012.5
20180624103615 66 52 0.0 0.0 0.00 0.00 0.28 89 1012.5
20180624102119 66 49 0.0 0.0 0.00 0.00 0.28 90 1012.5
20180624100622 66 88 0.0 0.0 0.00 0.00 0.28 90 1012.4
20180624095006 66 75 0.0 0.0 0.00 0.00 0.28 91 1012.3
20180624093509 66 82 0.0 0.0 0.00 0.00 0.28 91 1012.3
20180624092004 66 71 0.0 0.0 0.00 0.00 0.28 91 1012.2
20180624090454 66 107 0.0 0.0 0.00 0.00 0.28 92 1012.1
20180624085002 67 83 0.0 0.0 0.00 0.00 0.28 92 1011.9
20180624083455 66 93 0.0 0.0 0.00 0.00 0.28 92 1011.9
20180624082000 66 75 0.0 0.0 0.00 0.00 0.28 91 1011.7
20180624080607 66 59 0.0 0.0 0.00 0.00 0.28 91 1011.6
20180624074956 65 85 0.0 0.0 0.00 0.00 0.28 91 1011.5
20180624073604 66 75 0.0 0.0 0.00 0.00 0.28 91 1011.5
20180624071955 66 47 0.0 0.0 0.00 0.00 0.28 91 1011.4
20180624070500 66 37 0.0 0.0 0.00 0.00 0.28 90 1011.4
20180624064725 66 37 0.0 0.0 0.00 0.00 0.28 90 1011.3
20180624063204 66 37 0.0 0.0 0.00 0.00 0.28 90 1011.3
20180624061716 66 49 0.0 0.0 0.00 0.00 0.21 89 1011.3
20180624060211 66 49 0.0 0.0 0.00 0.00 0.03 89 1011.0
20180624054619 66 44 0.0 0.0 0.00 0.00 0.01 88 1010.9
20180624053121 67 0 0.0 0.0 0.00 0.00 0.00 88 1010.8
20180624051608 67 3 0.0 0.0 0.00 0.00 0.00 87 1010.7
20180624050113 67 45 0.0 0.0 0.00 0.00 0.00 87 1010.5
20180624044621 67 349 0.0 0.0 0.00 0.00 0.00 86 1010.3
20180624043105 67 350 0.0 0.0 0.00 0.00 0.00 85 1010.2
20180624041453 67 344 0.0 0.0 0.00 0.00 0.00 83 1010.1
20180624035950 67 0 0.0 0.0 0.00 0.00 0.00 82 1010.0
20180624034458 67 342 0.0 0.0 0.00 0.00 0.00 83 1010.1
20180624032950 68 282 0.0 0.0 0.00 0.00 0.00 85 1010.1
20180624031501 68 185 0.0 0.0 0.00 0.00 0.00 85 1010.1
20180624025957 68 185 0.0 0.0 0.00 0.00 0.00 85 1010.0
20180624024506 69 185 0.0 0.0 0.00 0.00 0.00 87 1010.0
20180624022953 69 185 0.0 0.0 0.00 0.00 0.00 87 1009.9
20180624021507 69 175 0.0 0.0 0.00 0.00 0.00 87 1009.9
20180624015952 69 147 0.0 0.0 0.00 0.00 0.00 87 1010.0
20180624014505 69 99 0.0 0.0 0.00 0.00 0.00 87 1010.2
20180624012950 69 97 0.0 0.0 0.00 0.00 0.00 87 1010.4
20180624011221 69 97 0.0 0.0 0.00 0.00 0.00 87 1010.5
20180624005703 69 97 0.0 0.0 0.00 0.00 0.00 86 1010.5
20180624004209 69 97 0.0 0.0 0.00 0.00 0.00 85 1010.6
20180624002706 69 99 0.0 0.0 0.00 0.00 0.00 85 1010.8
20180624001109 69 95 0.0 0.0 0.00 0.00 0.00 85 1010.8
20180623235608 70 106 0.0 0.0 0.00 0.00 0.00 85 1010.9
20180623234111 70 100 0.0 0.0 0.00 0.00 0.00 85 1011.0
20180623232617 70 116 0.0 0.0 0.00 0.00 0.00 86 1011.0
20180623231005 70 95 0.0 0.0 0.00 0.00 0.00 86 1011.0
20180623225604 70 116 0.0 0.0 0.00 0.00 0.00 86 1010.9
20180623224001 70 95 0.0 0.0 0.00 0.00 0.00 86 1010.9
20180623222605 70 85 0.0 0.0 0.00 0.00 0.00 86 1010.9
20180623215411 71 90 0.0 0.0 0.00 0.00 0.00 85 1011.1
20180623214006 71 120 0.0 0.0 0.00 0.00 0.00 85 1011.1
20180623212452 71 121 0.0 0.0 0.00 0.00 0.00 85 1011.1
20180623211001 71 100 0.0 0.0 0.00 0.00 0.00 84 1011.1
20180623205450 71 106 0.0 0.0 0.00 0.00 0.00 83 1011.2
20180623204003 71 112 0.0 0.0 0.00 0.00 0.00 83 1011.2
20180623202605 71 114 0.0 0.0 0.00 0.00 0.00 82 1011.1
20180623201000 71 106 0.0 0.0 0.00 0.00 0.00 82 1011.0
20180623195216 71 65 0.0 0.0 0.00 0.00 0.00 82 1011.0
20180623193702 71 83 0.0 0.0 0.00 0.00 0.00 81 1010.9
20180623192211 71 73 0.0 0.0 0.00 0.00 0.00 81 1010.9
20180623190719 71 109 0.0 0.0 0.00 0.00 0.00 80 1010.8
20180623185122 71 90 0.0 0.0 0.00 0.00 0.00 80 1010.8
20180623183610 72 90 0.0 0.0 0.00 0.00 0.00 81 1010.8
20180623182109 72 76 0.0 0.0 0.00 0.00 0.00 80 1010.8
20180623180621 72 69 0.0 0.0 0.00 0.00 0.00 79 1010.7
20180623175127 72 66 0.0 0.0 0.00 0.00 0.00 79 1010.6
20180623173623 72 103 0.0 0.0 0.00 0.00 0.00 79 1010.6
20180623172106 73 56 0.0 0.0 0.00 0.00 0.00 79 1010.6
20180623170457 73 89 0.0 0.0 0.00 0.00 0.00 79 1010.6